Weather observations for the past three days for
Pittsburgh - Allegheny County Airport
Imperial (Metric)
Date Time (edt) Wind (mph) Vis. (mi.) Weather Sky Cond. Temperature (ºF) Relative Humidity Wind Chill (°F) Heat Index (°F) Pressure Precipitation (in)
Air Dwpt 6 hour altimeter (in) sea level (mb) 1 hr 3 hr 6 hr
Max. Min.
24 10:53 SW 7 10.00 Mostly Cloudy BKN018 78.1 66.9 69% 80 30.14 1020.1
24 09:53 SW 10 10.00 Partly Cloudy SCT016 77 66.9 71% 79 30.14 1020.0
24 08:53 SW 9 10.00 Fair CLR 73 66 79% 30.13 1019.7
24 07:53 S 7 7.00 Fair CLR 70 66 72 68 87% 30.13 1019.7
24 06:53 S 7 7.00 Partly Cloudy SCT055 69.1 64.9 87% 30.12 1019.5
24 05:53 S 7 7.00 Fair CLR 69.1 64.9 87% 30.11 1019.0
24 04:53 S 6 9.00 Fair CLR 69.1 64 84% 30.1 1018.7
24 03:53 S 5 10.00 Fair CLR 70 64.9 84% 30.09 1018.5
24 02:53 SW 6 9.00 Fair CLR 71.1 64.9 81% 30.09 1018.4
24 01:53 S 5 10.00 Fair CLR 72 64.9 79 72 79% 30.09 1018.3
24 00:53 SW 7 10.00 Fair CLR 73.9 64 71% 30.1 1018.9
23 23:53 SW 6 10.00 A Few Clouds FEW110 75.9 63 64% 78 30.09 1018.7
23 22:53 S 5 10.00 Fair CLR 75.9 62.1 62% 78 30.09 1018.6
23 21:53 S 8 10.00 Fair CLR 77 62.1 60% 79 30.1 1018.9
23 20:53 SW 3 10.00 Fair CLR 78.1 63 60% 80 30.08 1018.3
23 19:53 S 7 10.00 Fair CLR 79 63 82.9 78.1 58% 81 30.07 1017.9
23 18:53 S 8 10.00 Fair CLR 81 63 54% 82 30.07 1017.9
23 17:53 SE 6 10.00 Fair CLR 82 63 53% 83 30.06 1017.3
23 16:53 SE 9 10.00 A Few Clouds FEW039 82 63 53% 83 30.07 1017.9
23 15:53 S 8 10.00 A Few Clouds FEW038 81 63 54% 82 30.09 1018.5
23 14:53 S 7 10.00 Mostly Cloudy BKN032 BKN045 80.1 64 58% 82 30.1 1018.9
23 13:53 SW 6 10.00 Mostly Cloudy BKN024 79 64.9 79 66.9 62% 81 30.12 1019.4
23 12:53 SE 6 7.00 A Few Clouds FEW011 73.9 64.9 74% 30.12 1019.7
23 11:53 S 8 3.00 Fog/Mist OVC009 70 64 82% 30.13 1020.1
23 10:53 Vrbl 5 2.50 Fog/Mist OVC008 71.1 64.9 81% 30.12 1019.7
23 09:53 S 5 1.50 Overcast with Haze OVC008 69.1 64 84% 30.11 1019.3
23 08:53 Calm 1.50 Fog/Mist OVC004 68 64.9 90% 30.1 1019.1
23 07:53 Calm 0.75 Fog/Mist OVC002 66.9 64.9 68 64.9 93% 30.09 1018.7
23 06:53 W 3 0.25 Fog OVC002 66 64 93% 30.08 1018.4
23 05:53 Vrbl 5 0.50 Fog VV002 66 64 93% 30.07 1018.0
23 04:53 Calm 1.50 Fog/Mist SCT003 BKN017 66 63 90% 30.05 1017.4
23 03:53 SW 7 4.00 Fog/Mist CLR 66.9 64 91% 30.05 1017.4
23 02:53 SW 7 4.00 Fog/Mist SCT015 66.9 64 91% 30.05 1017.3
23 01:53 W 6 4.00 Fog/Mist SCT031 68 64.9 70 68 90% 30.04 1017.1
23 00:53 SW 5 5.00 Fog/Mist BKN035 68 64.9 90% 30.03 1016.9
22 23:53 Calm 5.00 Fog/Mist OVC100 69.1 66 90% 30.02 1016.3
22 22:53 W 3 5.00 Fog/Mist OVC046 69.1 66 90% 30.03 1016.5
22 21:53 W 3 7.00 Overcast BKN040 BKN047 OVC065 70 64.9 84% 30.02 1016.1
22 20:53 Calm 7.00 Overcast SCT042 OVC060 70 64.9 84% 30.01 1015.7
22 19:53 Calm 6.00 Fog/Mist FEW038 OVC048 69.1 64.9 69.1 66 87% 29.99 1015.3 0.37
22 18:53 W 5 8.00 Overcast OVC035 69.1 64 84% 30 1015.5
22 17:53 E 3 7.00 Overcast FEW046 BKN080 OVC090 69.1 63 81% 30 1015.5
22 16:53 Calm 6.00 Overcast with Haze BKN100 OVC120 69.1 64 84% 30.01 1015.9 0.01 0.37
22 15:53 N 3 2.00 Light Rain Fog/Mist SCT040 BKN050 OVC070 66.9 63 87% 30.02 1016.3 0.14
22 14:53 Vrbl 5 2.00 Rain Fog/Mist BKN033 BKN040 OVC075 68 64.9 90% 30.03 1016.6 0.22
22 13:53 Vrbl 3 6.00 Fog/Mist FEW048 BKN060 BKN080 68 64.9 77 66 90% 30.02 1016.3 0.06 0.29
22 12:53 Vrbl 3 4.00 Rain Fog/Mist FEW060 SCT070 OVC090 66.9 64 91% 30.03 1016.7 0.19
22 11:53 W 8 6.00 Light Rain FEW070 BKN090 OVC110 68 63 84% 30.04 1016.8 0.04
22 10:53 SW 12 10.00 Overcast OVC065 75.9 59 56% 78 30.04 1016.6
22 09:53 Calm 10.00 Mostly Cloudy FEW080 BKN100 75.9 57.9 54% 78 30.02 1015.9
22 08:53 Calm 10.00 Fair CLR 73.9 57.9 57% 30.02 1016.1
22 07:53 Calm 10.00 Fair CLR 70 57.9 72 68 66% 30.02 1016.0
22 06:53 NE 5 10.00 Fair CLR 68 57 68% 30.02 1016.1
22 05:53 Calm 10.00 Fair CLR 69.1 57 66% 30.02 1016.0
22 04:53 N 3 10.00 Fair CLR 69.1 57 66% 30.02 1016.0
22 03:53 N 3 10.00 Fair CLR 70 55.9 61% 30.04 1016.5
22 02:53 NE 3 10.00 Fair CLR 72 55 55% 30.05 1017.0
22 01:53 NE 3 10.00 Fair CLR 72 55 82 72 55% 30.07 1017.6
22 00:53 E 6 10.00 Fair CLR 72 55 55% 30.08 1018.2
21 23:53 N 3 10.00 Fair CLR 73.9 54 50% 30.09 1018.3
21 22:53 Calm 10.00 Fair CLR 75.9 53.1 45% 78 30.09 1018.3
21 21:53 N 3 10.00 Fair CLR 75.9 53.1 45% 78 30.07 1017.8
21 20:53 N 3 10.00 Fair CLR 79 53.1 41% 79 30.06 1017.4
21 19:53 N 3 10.00 Fair CLR 82 51.1 86 82 34% 81 30.05 1017.2
21 18:53 Vrbl 3 10.00 Fair CLR 84 51.1 32% 82 30.06 1017.3
21 17:53 Vrbl 5 10.00 Fair CLR 86 52 31% 84 30.06 1017.6
21 16:53 Calm 10.00 Fair CLR 84.9 51.1 31% 83 30.08 1018.1
21 15:53 Vrbl 3 10.00 Fair CLR 82.9 53.1 36% 82 30.09 1018.5
21 14:53 Vrbl 5 10.00 Fair CLR 82 55 40% 81 30.09 1018.5
21 12:53 Vrbl 6 10.00 Fair CLR 82 54 38% 81 30.11 1019.0
21 11:53 Vrbl 3 10.00 Fair CLR 79 51.1 38% 79 30.12 1019.4
Date Time (edt) Wind (mph) Vis. (mi.) Weather Sky Cond. Air Dwpt Max. Min. Relative Humidity Wind Chill (°F) Heat Index (°F) altimeter (in) sea level (mb) 1 hr 3 hr 6 hr
6 hour
Temperature (ºF) Pressure Precipitation (in)